N1YZ Weather Reports


time (UTC)temp
F
wind
direction
speed
knots
gust
knots
rain 1hr
in
rain 24hr
in
rain mn
in
humidity
%
barometer
mb
20260510214039 81 20 0.0 0.0 0.00 0.00 0.00 65 1035.9
20260510213536 80 26 0.0 0.0 0.00 0.00 0.00 65 1035.8
20260510213032 79 7 0.0 0.0 0.00 0.00 0.00 71 1035.9
20260510212529 78 36 0.0 0.0 0.00 0.00 0.00 70 1036.0
20260510212026 76 25 0.0 0.0 0.00 0.00 0.00 73 1035.6
20260510211523 78 347 0.0 0.0 0.00 0.00 0.00 71 1035.9
20260510211017 78 50 0.0 0.0 0.00 0.00 0.00 67 1035.9
20260510210514 78 40 0.0 0.0 0.00 0.00 0.00 74 1035.7
20260510210009 77 146 0.0 0.0 0.00 0.00 0.00 69 1035.8
20260510205508 77 34 0.0 0.0 0.00 0.00 0.00 72 1036.0
20260510205004 76 1 0.0 0.9 0.00 0.00 0.00 73 1035.9
20260510204500 77 9 1.7 1.7 0.00 0.00 0.00 76 1035.7
20260510203956 77 10 0.9 0.9 0.00 0.00 0.00 73 1036.0
20260510203454 77 18 0.0 0.0 0.00 0.00 0.00 74 1035.8
20260510202949 78 20 0.0 0.0 0.00 0.00 0.00 72 1035.8
20260510202445 79 343 0.9 1.7 0.00 0.00 0.00 69 1035.8
20260510201942 79 9 0.0 0.0 0.00 0.00 0.00 68 1036.2
20260510201439 77 18 0.0 0.0 0.00 0.00 0.00 72 1036.0
20260510200936 78 22 0.0 0.0 0.00 0.00 0.00 71 1036.0
20260510200430 80 12 0.0 0.0 0.00 0.00 0.00 66 1036.0
20260510195924 80 56 0.0 0.0 0.00 0.00 0.00 65 1036.2
20260510195422 77 346 0.0 0.0 0.00 0.00 0.00 74 1036.1
20260510194917 78 25 0.0 0.0 0.00 0.00 0.00 72 1036.1
20260510194413 77 353 0.9 0.9 0.00 0.00 0.00 76 1036.2
20260510193909 77 46 0.0 0.0 0.00 0.00 0.00 74 1036.2
20260510193404 77 179 0.0 0.9 0.00 0.00 0.00 71 1036.3
20260510192900 76 340 0.0 0.0 0.00 0.00 0.00 78 1036.1
20260510192354 76 19 0.0 0.0 0.00 0.00 0.00 76 1036.3
20260510191850 76 358 0.0 0.0 0.00 0.00 0.00 73 1036.4
20260510191347 78 23 0.0 0.0 0.00 0.00 0.00 72 1036.5
20260510190844 77 9 0.0 0.0 0.00 0.00 0.00 71 1036.3
20260510190342 78 14 0.0 0.0 0.00 0.00 0.00 70 1036.3
20260510185838 77 30 0.0 0.0 0.00 0.00 0.00 69 1036.6
20260510185336 75 10 0.0 0.0 0.00 0.00 0.00 76 1036.6
20260510184833 74 343 0.9 0.9 0.00 0.00 0.00 78 1036.6
20260510184330 75 351 1.7 1.7 0.00 0.00 0.00 77 1036.7
20260510183829 75 148 0.9 0.9 0.00 0.00 0.00 75 1036.9
20260510183325 75 330 3.5 3.5 0.00 0.00 0.00 76 1036.7
20260510182821 75 36 0.0 0.9 0.00 0.00 0.00 79 1037.0
20260510182318 74 284 0.9 1.7 0.00 0.00 0.00 78 1036.9
20260510181814 74 333 2.6 2.6 0.00 0.00 0.00 78 1036.8
20260510181311 74 11 0.0 0.0 0.00 0.00 0.00 82 1037.0
20260510180807 73 20 0.0 0.0 0.00 0.00 0.00 87 1036.9
20260510180305 72 335 1.7 2.6 0.00 0.00 0.00 84 1037.2
20260510175801 73 9 0.0 0.0 0.00 0.00 0.00 84 1037.0
20260510175257 72 14 0.0 0.0 0.00 0.00 0.00 86 1037.0
20260510174754 70 17 0.0 0.9 0.00 0.00 0.00 87 1037.0
20260510174251 69 14 0.0 0.0 0.00 0.00 0.00 89 1037.1
20260510173747 70 14 0.0 0.0 0.00 0.00 0.00 89 1037.3
20260510173243 70 13 0.0 0.0 0.00 0.00 0.00 87 1037.5
20260510172739 70 353 0.0 0.0 0.00 0.00 0.00 87 1037.5
20260510172235 69 146 0.0 0.0 0.00 0.00 0.00 87 1037.4
20260510171732 69 80 0.0 0.9 0.00 0.00 0.00 88 1037.6
20260510171229 69 6 0.0 0.0 0.00 0.00 0.00 90 1037.8
20260510170726 68 5 0.0 0.0 0.00 0.00 0.00 90 1037.8
20260510170222 69 359 0.0 0.0 0.00 0.00 0.00 91 1037.7
20260510165718 69 1 0.0 0.0 0.00 0.00 0.00 90 1037.8
20260510165214 68 1 0.0 0.0 0.00 0.00 0.00 90 1037.8
20260510164712 68 346 0.0 0.0 0.00 0.00 0.00 91 1037.9
20260510164209 69 347 0.0 0.0 0.00 0.00 0.00 91 1037.9
20260510163704 68 347 0.0 0.0 0.00 0.00 0.00 92 1037.8
20260510163200 68 347 0.0 0.0 0.00 0.00 0.00 92 1037.5
20260510162700 68 347 0.0 0.0 0.00 0.00 0.00 92 1037.4
20260510162157 68 346 0.0 0.0 0.00 0.00 0.00 91 1037.8
20260510161652 68 352 0.0 0.0 0.00 0.00 0.00 93 1037.6
20260510161149 68 353 0.0 0.0 0.00 0.00 0.00 93 1037.7
20260510160646 68 27 0.0 0.0 0.00 0.00 0.00 93 1037.6
20260510160142 67 27 0.0 0.0 0.00 0.00 0.00 93 1037.6
20260510155638 67 27 0.0 0.0 0.00 0.00 0.00 93 1037.7
20260510155134 67 27 0.0 0.0 0.00 0.00 0.00 94 1037.7
20260510154629 67 28 0.0 0.0 0.00 0.00 0.00 94 1037.7
20260510154125 67 28 0.0 0.0 0.00 0.00 0.00 94 1037.7
20260510153621 67 26 0.0 0.0 0.00 0.00 0.00 95 1037.6
20260510153117 67 26 0.0 0.0 0.00 0.00 0.00 95 1037.6
20260510152614 67 28 0.0 0.0 0.00 0.00 0.00 95 1037.5
20260510152110 66 65 0.0 0.0 0.00 0.00 0.00 95 1037.5
20260510151607 66 42 0.0 0.0 0.00 0.00 0.00 97 1037.6
20260510151106 66 48 0.0 0.0 0.00 0.00 0.00 97 1037.6
20260510150606 65 185 0.0 0.0 0.00 0.00 0.00 97 1037.8
20260510145558 65 40 0.0 0.0 0.00 0.00 0.00 99 1037.5
20260510145055 65 150 0.0 0.0 0.00 0.00 0.00 99 1037.5
20260510144551 65 56 0.0 0.0 0.00 0.00 0.00 99 1037.5
20260510144047 65 330 0.0 0.0 0.00 0.00 0.00 99 1037.7
20260510143543 65 334 0.0 0.0 0.00 0.00 0.00 99 1037.5
20260510143039 64 334 0.0 0.0 0.00 0.00 0.00 99 1037.5
20260510142536 64 334 0.0 0.0 0.00 0.00 0.00 99 1037.5
20260510142033 64 334 0.0 0.0 0.00 0.00 0.00 99 1037.5
20260510141530 64 334 0.0 0.0 0.00 0.00 0.00 99 1037.4
20260510141027 64 334 0.0 0.0 0.00 0.00 0.00 99 1037.5
20260510140523 64 334 0.0 0.0 0.00 0.00 0.00 99 1037.4
20260510140023 64 334 0.0 0.0 0.00 0.00 0.00 99 1037.8
20260510135518 64 334 0.0 0.0 0.00 0.00 0.00 99 1037.5
20260510135015 64 334 0.0 0.0 0.00 0.00 0.00 99 1037.5
20260510134513 64 334 0.0 0.0 0.00 0.00 0.00 99 1037.5
20260510134009 64 334 0.0 0.0 0.00 0.00 0.00 99 1037.5
20260510133505 64 334 0.0 0.0 0.00 0.00 0.00 99 1037.3
20260510133001 64 334 0.0 0.0 0.00 0.00 0.00 99 1037.2
20260510132458 64 334 0.0 0.0 0.00 0.00 0.00 99 1037.3
20260510131955 63 334 0.0 0.0 0.00 0.00 0.00 99 1037.1
20260510131453 63 334 0.0 0.0 0.00 0.00 0.00 99 1037.1
20260510130950 63 334 0.0 0.0 0.00 0.00 0.00 99 1037.1
20260510130446 63 334 0.0 0.0 0.00 0.00 0.00 99 1037.0
20260510125943 63 334 0.0 0.0 0.00 0.00 0.00 99 1037.0
20260510125439 63 334 0.0 0.0 0.00 0.00 0.00 99 1037.0
20260510124936 63 334 0.0 0.0 0.00 0.00 0.00 99 1037.0
20260510124432 63 334 0.0 0.0 0.00 0.00 0.00 99 1037.2
20260510123930 63 334 0.0 0.0 0.00 0.00 0.00 99 1037.0
20260510123425 63 334 0.0 0.0 0.00 0.00 0.00 99 1036.8
20260510122921 63 334 0.0 0.0 0.00 0.00 0.00 99 1036.8
20260510122417 63 334 0.0 0.0 0.00 0.00 0.00 99 1036.7
20260510121913 63 334 0.0 0.0 0.00 0.00 0.00 99 1036.6
20260510121410 63 334 0.0 0.0 0.00 0.00 0.00 99 1036.6
20260510120908 63 334 0.0 0.0 0.00 0.00 0.00 99 1036.6
20260510120405 63 334 0.0 0.0 0.00 0.00 0.00 99 1036.4
20260510115900 63 334 0.0 0.0 0.00 0.00 0.00 99 1036.1
20260510115352 63 335 0.0 0.0 0.00 0.00 0.00 99 1036.1
20260510114848 63 335 0.0 0.0 0.00 0.00 0.00 99 1036.4
20260510114346 63 336 0.0 0.0 0.00 0.00 0.00 99 1035.9
20260510113846 63 336 0.0 0.0 0.00 0.00 0.00 99 1035.9
20260510113342 63 337 0.0 0.0 0.00 0.00 0.00 99 1035.9
20260510112839 63 337 0.0 0.0 0.00 0.00 0.00 99 1035.7
20260510112336 63 337 0.0 0.0 0.00 0.00 0.00 99 1035.3
20260510111832 63 337 0.0 0.0 0.00 0.00 0.00 99 1035.4
20260510111329 63 337 0.0 0.0 0.00 0.00 0.00 99 1035.4
20260510110828 63 337 0.0 0.0 0.00 0.00 0.00 99 1035.2
20260510110326 63 337 0.0 0.0 0.00 0.00 0.00 99 1035.3
20260510105821 63 337 0.0 0.0 0.00 0.00 0.00 99 1035.1
20260510105316 63 337 0.0 0.0 0.00 0.00 0.00 99 1035.0
20260510104813 63 337 0.0 0.0 0.00 0.00 0.00 99 1035.0
20260510104310 63 337 0.0 0.0 0.00 0.00 0.00 99 1034.8
20260510103806 63 337 0.0 0.0 0.00 0.00 0.00 99 1034.7
20260510103303 63 337 0.0 0.0 0.00 0.00 0.00 99 1034.8
20260510102758 63 337 0.0 0.0 0.00 0.00 0.00 99 1034.7
20260510102254 63 336 0.0 0.0 0.00 0.00 0.00 99 1034.7
20260510101751 63 336 0.0 0.0 0.00 0.00 0.00 99 1034.5
20260510101250 63 336 0.0 0.0 0.00 0.00 0.00 99 1034.3
20260510100745 63 336 0.0 0.0 0.00 0.00 0.00 99 1034.3
20260510100243 63 336 0.0 0.0 0.00 0.00 0.00 99 1034.3
20260510095738 63 336 0.0 0.0 0.00 0.00 0.00 99 1034.2
20260510095234 63 336 0.0 0.0 0.00 0.00 0.00 99 1034.1
20260510094733 63 336 0.0 0.0 0.00 0.00 0.00 99 1034.2
20260510094228 63 336 0.0 0.0 0.00 0.00 0.00 99 1034.1
20260510093724 63 336 0.0 0.0 0.00 0.00 0.00 99 1033.8
20260510093222 63 335 0.0 0.0 0.00 0.00 0.00 99 1033.8
20260510092718 63 335 0.0 0.0 0.00 0.00 0.00 99 1034.0
20260510092214 63 335 0.0 0.0 0.00 0.00 0.00 99 1034.0
20260510091710 63 335 0.0 0.0 0.00 0.00 0.00 99 1033.7
20260510091206 63 335 0.0 0.0 0.00 0.00 0.00 99 1033.5
20260510090703 63 335 0.0 0.0 0.00 0.00 0.00 99 1033.6
20260510090200 63 335 0.0 0.0 0.00 0.00 0.00 99 1033.6
20260510085655 63 335 0.0 0.0 0.00 0.00 0.00 99 1033.6
20260510085150 63 335 0.0 0.0 0.00 0.00 0.00 99 1033.6
20260510084647 63 335 0.0 0.0 0.00 0.00 0.00 99 1033.3
20260510084143 63 335 0.0 0.0 0.00 0.00 0.00 99 1033.0
20260510083640 63 335 0.0 0.0 0.00 0.00 0.00 99 1033.3
20260510083137 63 334 0.0 0.0 0.00 0.00 0.00 99 1033.2
20260510082633 63 334 0.0 0.0 0.00 0.00 0.00 99 1033.2
20260510082129 63 334 0.0 0.0 0.00 0.00 0.00 99 1033.2
20260510081623 63 334 0.0 0.0 0.00 0.00 0.00 99 1033.2
20260510081119 63 334 0.0 0.0 0.00 0.00 0.00 99 1033.2
20260510080614 63 334 0.0 0.0 0.00 0.00 0.00 99 1033.3
20260510080110 63 334 0.0 0.0 0.00 0.00 0.00 99 1033.3
20260510075602 63 334 0.0 0.0 0.00 0.00 0.00 99 1032.9
20260510075058 63 334 0.0 0.0 0.00 0.00 0.00 99 1033.2
20260510074556 63 334 0.0 0.0 0.00 0.00 0.00 99 1033.1
20260510074051 63 334 0.0 0.0 0.00 0.00 0.00 99 1033.3
20260510073548 63 334 0.0 0.0 0.00 0.00 0.00 99 1033.1
20260510073045 63 333 0.0 0.0 0.00 0.00 0.00 99 1033.3
20260510072541 63 333 0.0 0.0 0.00 0.00 0.00 99 1033.2
20260510072037 63 333 0.0 0.0 0.00 0.00 0.00 99 1033.3
20260510071533 63 333 0.0 0.0 0.00 0.00 0.00 99 1033.2
20260510071032 63 333 0.0 0.0 0.00 0.00 0.00 99 1033.3
20260510070528 63 333 0.0 0.0 0.00 0.00 0.00 99 1033.2
20260510070025 63 333 0.0 0.0 0.00 0.00 0.00 99 1033.3
20260510065521 63 333 0.0 0.0 0.00 0.00 0.00 99 1033.3
20260510065017 63 333 0.0 0.0 0.00 0.00 0.00 99 1033.3
20260510064514 63 333 0.0 0.0 0.00 0.00 0.00 99 1033.2
20260510064011 63 333 0.0 0.0 0.00 0.00 0.00 99 1033.4
20260510063508 63 333 0.0 0.0 0.00 0.00 0.00 99 1033.4
20260510063005 63 333 0.0 0.0 0.00 0.00 0.00 99 1033.7
20260510062501 63 333 0.0 0.0 0.00 0.00 0.00 99 1033.8
20260510061955 63 333 0.0 0.0 0.00 0.00 0.00 99 1033.8
20260510061453 63 338 0.0 0.0 0.00 0.00 0.00 99 1033.9
20260510060949 63 340 0.0 0.0 0.00 0.00 0.00 99 1033.5
20260510060446 63 340 0.0 0.0 0.00 0.00 0.00 99 1033.6
20260510055942 63 340 0.0 0.0 0.00 0.00 0.00 99 1033.4
20260510055438 63 340 0.0 0.0 0.00 0.00 0.00 99 1033.7
20260510054937 63 340 0.0 0.0 0.00 0.00 0.00 99 1033.7
20260510054431 63 340 0.0 0.0 0.00 0.00 0.00 99 1033.6
20260510053927 63 340 0.0 0.0 0.00 0.00 0.00 99 1033.7
20260510053422 63 340 0.0 0.0 0.00 0.00 0.00 99 1033.8
20260510052919 63 340 0.0 0.0 0.00 0.00 0.00 99 1033.7
20260510052415 63 339 0.0 0.0 0.00 0.00 0.00 99 1033.9
20260510051911 63 339 0.0 0.0 0.00 0.00 0.00 99 1034.0
20260510051408 63 338 0.0 0.0 0.00 0.00 0.00 99 1033.8
20260510050904 63 347 0.0 0.0 0.00 0.00 0.00 99 1034.0
20260510050401 63 1 0.0 0.0 0.00 0.00 0.00 99 1033.8
20260510045858 63 1 0.0 0.0 0.00 0.03 0.03 99 1033.8
20260510045355 63 1 0.0 0.0 0.00 0.03 0.03 99 1033.7
20260510044852 64 1 0.0 0.0 0.00 0.03 0.03 99 1033.8
20260510044349 64 1 0.0 0.0 0.00 0.03 0.03 99 1033.9
20260510043845 64 1 0.0 0.0 0.00 0.03 0.03 99 1033.7
20260510043341 64 1 0.0 0.0 0.00 0.03 0.03 99 1033.7
20260510042839 64 1 0.0 0.0 0.00 0.03 0.03 99 1033.7
20260510042335 64 1 0.0 0.0 0.00 0.03 0.03 99 1033.8
20260510041831 64 1 0.0 0.0 0.00 0.03 0.03 99 1033.9
20260510041329 64 1 0.0 0.0 0.00 0.03 0.03 99 1033.9
20260510040826 64 1 0.0 0.0 0.00 0.03 0.03 99 1034.0
20260510040323 64 1 0.0 0.0 0.00 0.03 0.03 99 1033.9
20260510035818 64 1 0.0 0.0 0.00 0.03 0.03 99 1034.1
20260510035314 64 1 0.0 0.0 0.00 0.03 0.03 99 1033.9
20260510034810 64 1 0.0 0.0 0.00 0.03 0.03 99 1034.2
20260510034308 64 1 0.0 0.0 0.00 0.03 0.03 99 1034.1
20260510033804 64 1 0.0 0.0 0.00 0.03 0.03 99 1034.2
20260510033301 64 1 0.0 0.0 0.00 0.03 0.03 99 1034.0
20260510032757 65 1 0.0 0.0 0.00 0.03 0.03 99 1034.2
20260510032254 65 1 0.0 0.0 0.00 0.03 0.03 99 1034.4
20260510031750 65 1 0.0 0.0 0.00 0.03 0.03 99 1034.2
20260510031245 65 1 0.0 0.0 0.00 0.03 0.03 99 1034.1
20260510030744 65 1 0.0 0.0 0.00 0.03 0.03 99 1034.1
20260510030237 65 1 0.0 0.0 0.00 0.03 0.03 99 1033.9
20260510025734 65 1 0.0 0.0 0.00 0.03 0.03 98 1034.0
20260510025231 65 1 0.0 0.0 0.00 0.03 0.03 98 1034.0
20260510024722 65 1 0.0 0.0 0.00 0.03 0.03 98 1033.9
20260510024219 65 1 0.0 0.0 0.00 0.03 0.03 98 1034.1
20260510023714 65 1 0.0 0.0 0.00 0.03 0.03 98 1034.1
20260510023212 66 1 0.0 0.0 0.00 0.03 0.03 98 1034.0
20260510022707 66 1 0.0 0.0 0.00 0.03 0.03 98 1034.0
20260510022156 66 1 0.0 0.0 0.00 0.03 0.03 98 1033.8
20260510021652 66 1 0.0 0.0 0.00 0.03 0.03 98 1033.5
20260510021149 66 1 0.0 0.0 0.00 0.03 0.03 98 1033.5
20260510020644 66 1 0.0 0.0 0.00 0.03 0.03 98 1033.5
20260510020140 66 1 0.0 0.0 0.00 0.03 0.03 98 1033.5
20260510015636 66 1 0.0 0.0 0.00 0.03 0.03 97 1033.3
20260510015133 66 1 0.0 0.0 0.00 0.03 0.03 97 1033.4
20260510014628 66 1 0.0 0.0 0.00 0.03 0.03 97 1033.4
20260510014125 66 1 0.0 0.0 0.00 0.03 0.03 97 1033.1
20260510013619 66 1 0.0 0.0 0.00 0.03 0.03 97 1032.8
20260510013115 66 1 0.0 0.0 0.00 0.03 0.03 97 1032.8
20260510012614 66 1 0.0 0.0 0.00 0.03 0.03 96 1032.7
20260510012111 66 1 0.0 0.0 0.00 0.03 0.03 96 1032.5
20260510011610 66 1 0.0 0.0 0.00 0.03 0.03 96 1032.6
20260510011106 66 1 0.0 0.0 0.00 0.03 0.03 96 1032.6
20260510010603 67 1 0.0 0.0 0.00 0.03 0.03 95 1032.6
20260510010100 67 1 0.0 0.0 0.00 0.03 0.03 95 1032.4
20260510005555 67 1 0.0 0.0 0.00 0.03 0.03 95 1032.4
20260510005053 67 1 0.0 0.0 0.00 0.03 0.03 95 1032.4
20260510004551 67 1 0.0 0.0 0.00 0.03 0.03 95 1032.3
20260510004049 67 1 0.0 0.0 0.00 0.03 0.03 94 1032.2
20260510003545 67 1 0.0 0.0 0.00 0.03 0.03 94 1032.1
20260510003041 67 1 0.0 0.0 0.00 0.03 0.03 94 1032.2
20260510002536 67 1 0.0 0.0 0.00 0.03 0.03 93 1032.1
20260510002034 68 1 0.0 0.0 0.00 0.03 0.03 93 1032.1
20260510001531 68 1 0.0 0.0 0.00 0.03 0.03 93 1032.2
20260510001030 68 1 0.0 0.0 0.00 0.03 0.03 92 1032.2
20260510000530 68 2 0.0 0.0 0.00 0.03 0.03 92 1032.0
20260510000027 68 2 0.0 0.0 0.00 0.03 0.03 92 1032.0
20260509235524 68 2 0.0 0.0 0.00 0.03 0.03 92 1031.9
20260509235021 68 2 0.0 0.0 0.00 0.03 0.03 91 1031.8
20260509234517 68 2 0.0 0.0 0.00 0.03 0.03 91 1031.7
20260509234016 68 2 0.0 0.0 0.00 0.03 0.03 90 1031.6
20260509233513 68 2 0.0 0.0 0.00 0.03 0.03 90 1031.7
20260509233010 68 2 0.0 0.0 0.00 0.03 0.03 90 1031.5
20260509232507 68 2 0.0 0.0 0.00 0.03 0.03 90 1031.3
20260509232003 69 2 0.0 0.0 0.00 0.03 0.03 89 1031.6
20260509231459 69 2 0.0 0.0 0.00 0.03 0.03 88 1031.3
20260509230957 69 2 0.0 0.0 0.00 0.03 0.03 88 1031.4
20260509230454 69 2 0.0 0.0 0.00 0.03 0.03 88 1031.4
20260509225950 70 2 0.0 0.0 0.00 0.03 0.03 88 1031.4
20260509225446 70 2 0.0 0.0 0.00 0.03 0.03 87 1031.2
20260509224942 70 2 0.0 0.0 0.00 0.03 0.03 87 1031.1
20260509224438 70 2 0.0 0.0 0.00 0.03 0.03 86 1031.1
20260509223935 70 2 0.0 0.0 0.00 0.03 0.03 86 1031.1
20260509223431 71 2 0.0 0.0 0.00 0.03 0.03 85 1031.0
20260509222929 71 2 0.0 0.0 0.00 0.03 0.03 84 1031.1
20260509222424 71 2 0.0 0.0 0.00 0.03 0.03 84 1030.9
20260509221920 71 2 0.0 0.0 0.00 0.03 0.03 84 1031.1
20260509221417 71 2 0.0 0.0 0.00 0.03 0.03 84 1031.0
20260509220913 71 2 0.0 0.0 0.00 0.03 0.03 85 1030.7
20260509220409 71 2 0.0 0.0 0.00 0.03 0.03 84 1030.9
20260509215905 71 2 0.0 0.0 0.00 0.03 0.03 83 1031.2
20260509215401 71 2 0.0 0.0 0.00 0.03 0.03 84 1031.1
20260509214858 71 2 0.0 0.0 0.00 0.03 0.03 84 1030.7